User: anonymous   Login
Location: Fountain Hills
(33.6120°N, 111.7170°W)
Time: 17:56:52
(UTC-07:00)
Language:

Hamsat - Orbit

View from above orbital plane
View from above orbital plane
View from above satellite
View from above satellite

Ground track
Ground track

The orbit data is extracted from the following two-line orbital elements,

1 28650U 05017B   18111.51413590 +.00000358 +00000-0 +43791-4 0  9998
2 28650 097.6939 081.1913 0023149 186.5814 173.5103 14.88907642701974
Epoch (UTC): 21 April 2018 12:20:21
Eccentricity: 0.0023149
inclination: 97.6939°
perigee height: 585 km
apogee height: 617 km
right ascension of ascending node: 81.1913°
argument of perigee: 186.5814°
revolutions per day: 14.88907642
mean anomaly at epoch: 173.5103°
orbit number at epoch: 70197

The dashed part of the orbit path shows where the satellite is in the earth's shadow,  

DLR